START_TIME,STEP,MOV.,P11,t_acc.,P23,t_acc.,P27,t_acc.,A4,t_acc.
1986-01-25 18:00:24.470 ,6,0,4.,4.8,0.,4.8,0.,4.8,0.,4.8
1986-01-25 18:00:29.270 ,6,0,5.,4.8,0.,4.8,0.,4.8,0.,4.8
1986-01-25 18:00:34.070 ,6,0,4.,4.8,0.,4.8,0.,4.8,0.,4.8
1986-01-25 18:00:38.870 ,6,0,3.,4.8,0.,4.8,0.,4.8,0.,4.8
1986-01-25 18:00:43.670 ,6,0,7.,4.8,0.,4.8,0.,4.8,0.,4.8
1986-01-25 18:00:48.470 ,5,0,8.,4.8,0.,4.8,0.,4.8,0.,4.8
1986-01-25 18:00:53.270 ,5,0,13.,4.8,0.,4.8,0.,4.8,0.,4.8
1986-01-25 18:00:58.070 ,5,0,7.,4.8,0.,4.8,0.,4.8,0.,4.8
1986-01-25 18:01:02.870 ,5,0,8.,4.8,0.,4.8,0.,4.8,0.,4.8
1986-01-25 18:01:07.670 ,5,0,12.,4.8,0.,4.8,0.,4.8,1.,4.8
1986-01-25 18:01:12.470 ,5,0,8.,4.8,0.,4.8,0.,4.8,0.,4.8
1986-01-25 18:01:17.270 ,5,0,4.,4.8,0.,4.8,0.,4.8,0.,4.8
1986-01-25 18:01:22.070 ,5,0,6.,4.8,0.,4.8,0.,4.8,0.,4.8
1986-01-25 18:01:26.870 ,5,0,5.,4.8,0.,4.8,0.,4.8,0.,4.8
1986-01-25 18:01:31.670 ,5,0,7.,4.8,0.,4.8,0.,4.8,0.,4.8
1986-01-25 18:01:36.470 ,4,0,7.,4.8,0.,4.8,0.,4.8,0.,4.8
1986-01-25 18:01:41.270 ,4,0,9.,4.8,0.,4.8,0.,4.8,0.,4.8
1986-01-25 18:01:46.070 ,4,0,4.,4.8,0.,4.8,0.,4.8,0.,4.8
1986-01-25 18:01:50.870 ,4,0,12.,4.8,0.,4.8,0.,4.8,0.,4.8
1986-01-25 18:01:55.670 ,4,0,10.,4.8,0.,4.8,0.,4.8,0.,4.8
1986-01-25 18:02:00.470 ,4,0,8.,4.8,0.,4.8,0.,4.8,0.,4.8
1986-01-25 18:02:05.270 ,4,0,9.,4.8,0.,4.8,0.,4.8,0.,4.8
1986-01-25 18:02:10.070 ,4,0,7.,4.8,0.,4.8,0.,4.8,0.,4.8
1986-01-25 18:02:14.870 ,4,0,12.,4.8,0.,4.8,0.,4.8,0.,4.8
1986-01-25 18:02:19.670 ,4,0,9.,4.8,0.,4.8,0.,4.8,0.,4.8
1986-01-25 18:02:24.470 ,3,0,10.,4.8,0.,4.8,0.,4.8,0.,4.8
1986-01-25 18:02:29.270 ,3,0,5.,4.8,0.,4.8,0.,4.8,0.,4.8
1986-01-25 18:02:34.070 ,3,0,10.,4.8,0.,4.8,0.,4.8,0.,4.8
1986-01-25 18:02:38.870 ,3,0,6.,4.8,0.,4.8,0.,4.8,0.,4.8
1986-01-25 18:02:43.670 ,3,0,7.,4.8,0.,4.8,0.,4.8,0.,4.8
1986-01-25 18:02:48.470 ,3,0,8.,4.8,0.,4.8,0.,4.8,0.,4.8
1986-01-25 18:02:53.270 ,3,0,11.,4.8,0.,4.8,0.,4.8,0.,4.8
1986-01-25 18:02:58.070 ,3,0,5.,4.8,0.,4.8,0.,4.8,0.,4.8
1986-01-25 18:03:02.870 ,3,0,9.,4.8,0.,4.8,0.,4.8,0.,4.8
1986-01-25 18:03:07.670 ,3,0,5.,4.8,0.,4.8,0.,4.8,0.,4.8
1986-01-25 18:03:12.470 ,2,0,8.,4.8,0.,4.8,0.,4.8,0.,4.8
1986-01-25 18:03:17.270 ,2,0,8.,4.8,0.,4.8,0.,4.8,0.,4.8
1986-01-25 18:03:22.070 ,2,0,8.,4.8,0.,4.8,0.,4.8,0.,4.8
1986-01-25 18:03:26.870 ,2,0,11.,4.8,0.,4.8,0.,4.8,0.,4.8
1986-01-25 18:03:31.670 ,2,0,9.,4.8,0.,4.8,0.,4.8,0.,4.8
1986-01-25 18:03:36.470 ,2,0,7.,4.8,0.,4.8,0.,4.8,0.,4.8
1986-01-25 18:03:41.270 ,2,0,9.,4.8,0.,4.8,0.,4.8,0.,4.8
1986-01-25 18:03:46.070 ,2,0,3.,4.8,0.,4.8,0.,4.8,0.,4.8
1986-01-25 18:03:50.870 ,2,0,7.,4.8,0.,4.8,0.,4.8,0.,4.8
1986-01-25 18:03:55.670 ,2,0,9.,4.8,0.,4.8,0.,4.8,0.,4.8
1986-01-25 18:04:00.470 ,1,0,7.,4.8,0.,4.8,0.,4.8,0.,4.8
1986-01-25 18:04:05.270 ,1,0,6.,4.8,0.,4.8,0.,4.8,0.,4.8
1986-01-25 18:04:10.070 ,1,0,8.,4.8,0.,4.8,0.,4.8,0.,4.8
1986-01-25 18:04:14.870 ,1,0,10.,4.8,0.,4.8,0.,4.8,0.,4.8
1986-01-25 18:04:19.670 ,1,0,8.,4.8,0.,4.8,0.,4.8,0.,4.8
1986-01-25 18:04:24.470 ,1,0,6.,4.8,0.,4.8,0.,4.8,0.,4.8
1986-01-25 18:04:29.270 ,1,0,6.,4.8,0.,4.8,0.,4.8,0.,4.8
1986-01-25 18:04:34.070 ,1,0,7.,4.8,0.,4.8,0.,4.8,0.,4.8
1986-01-25 18:04:38.870 ,1,0,9.,4.8,0.,4.8,0.,4.8,0.,4.8
1986-01-25 18:04:43.670 ,1,0,7.,4.8,0.,4.8,0.,4.8,0.,4.8
1986-01-25 18:04:48.470 ,0,0,10.,4.8,0.,4.8,0.,4.8,0.,4.8
1986-01-25 18:04:53.270 ,0,0,8.,4.8,0.,4.8,0.,4.8,0.,4.8
1986-01-25 18:04:58.070 ,0,0,6.,4.8,0.,4.8,0.,4.8,0.,4.8
1986-01-25 18:05:02.870 ,0,0,3.,4.8,0.,4.8,0.,4.8,0.,4.8
1986-01-25 18:05:07.670 ,0,0,5.,4.8,0.,4.8,0.,4.8,0.,4.8
1986-01-25 18:05:12.470 ,0,0,2.,4.8,0.,4.8,0.,4.8,0.,4.8
1986-01-25 18:05:17.270 ,0,0,6.,4.8,0.,4.8,0.,4.8,0.,4.8
1986-01-25 18:05:22.070 ,0,0,7.,4.8,0.,4.8,0.,4.8,0.,4.8
1986-01-25 18:05:26.870 ,0,0,6.,4.8,0.,4.8,0.,4.8,0.,4.8
1986-01-25 18:05:31.670 ,0,0,4.,4.8,0.,4.8,0.,4.8,0.,4.8
1986-01-25 18:05:36.470 ,0,0,3.,4.8,0.,4.8,0.,4.8,0.,4.8
1986-01-25 18:05:41.270 ,0,0,9.,4.8,0.,4.8,0.,4.8,0.,4.8
1986-01-25 18:05:46.070 ,0,0,11.,4.8,0.,4.8,0.,4.8,0.,4.8
1986-01-25 18:05:50.870 ,0,0,3.,4.8,0.,4.8,0.,4.8,0.,4.8
1986-01-25 18:05:55.670 ,0,0,5.,4.8,0.,4.8,0.,4.8,0.,4.8
1986-01-25 18:06:00.470 ,0,0,8.,4.8,0.,4.8,0.,4.8,0.,4.8
1986-01-25 18:06:05.270 ,0,0,5.,4.8,0.,4.8,0.,4.8,0.,4.8
1986-01-25 18:06:10.070 ,0,0,10.,4.8,0.,4.8,0.,4.8,0.,4.8
1986-01-25 18:06:14.870 ,0,0,4.,4.8,0.,4.8,0.,4.8,0.,4.8
1986-01-25 18:06:19.670 ,0,0,9.,4.8,0.,4.8,0.,4.8,0.,4.8
1986-01-25 18:06:24.470 ,1,0,10.,4.8,0.,4.8,0.,4.8,0.,4.8
1986-01-25 18:06:29.270 ,1,0,8.,4.8,0.,4.8,0.,4.8,0.,4.8
1986-01-25 18:06:34.070 ,1,0,5.,4.8,0.,4.8,0.,4.8,0.,4.8
1986-01-25 18:06:38.870 ,1,0,6.,4.8,0.,4.8,0.,4.8,0.,4.8
1986-01-25 18:06:43.670 ,1,0,7.,4.8,0.,4.8,0.,4.8,0.,4.8
1986-01-25 18:06:48.470 ,1,0,5.,4.8,0.,4.8,0.,4.8,0.,4.8
1986-01-25 18:06:53.270 ,1,0,9.,4.8,0.,4.8,0.,4.8,0.,4.8
1986-01-25 18:06:58.070 ,1,0,8.,4.8,0.,4.8,0.,4.8,0.,4.8
1986-01-25 18:07:02.870 ,1,0,9.,4.8,0.,4.8,0.,4.8,0.,4.8
1986-01-25 18:07:07.670 ,1,0,5.,4.8,0.,4.8,0.,4.8,0.,4.8
1986-01-25 18:07:12.470 ,2,0,4.,4.8,0.,4.8,0.,4.8,0.,4.8
1986-01-25 18:07:17.270 ,2,0,5.,4.8,0.,4.8,0.,4.8,0.,4.8
1986-01-25 18:07:22.070 ,2,0,3.,4.8,0.,4.8,0.,4.8,0.,4.8
1986-01-25 18:07:26.870 ,2,0,9.,4.8,0.,4.8,0.,4.8,0.,4.8
1986-01-25 18:07:31.670 ,2,0,8.,4.8,0.,4.8,0.,4.8,0.,4.8
1986-01-25 18:07:36.470 ,2,0,5.,4.8,0.,4.8,0.,4.8,0.,4.8
1986-01-25 18:07:41.270 ,2,0,9.,4.8,0.,4.8,0.,4.8,0.,4.8
1986-01-25 18:07:46.070 ,2,0,2.,4.8,0.,4.8,0.,4.8,0.,4.8
1986-01-25 18:07:50.870 ,2,0,5.,4.8,0.,4.8,0.,4.8,0.,4.8
1986-01-25 18:07:55.670 ,2,0,7.,4.8,0.,4.8,0.,4.8,0.,4.8
1986-01-25 18:08:00.470 ,3,0,6.,4.8,0.,4.8,0.,4.8,0.,4.8
1986-01-25 18:08:05.270 ,3,0,4.,4.8,0.,4.8,0.,4.8,0.,4.8
1986-01-25 18:08:10.070 ,3,0,7.,4.8,0.,4.8,0.,4.8,0.,4.8
1986-01-25 18:08:14.870 ,3,0,7.,4.8,0.,4.8,0.,4.8,0.,4.8
1986-01-25 18:08:19.670 ,3,0,9.,4.8,0.,4.8,0.,4.8,0.,4.8
1986-01-25 18:08:24.470 ,3,0,6.,4.8,0.,4.8,0.,4.8,0.,4.8
1986-01-25 18:08:29.270 ,3,0,7.,4.8,0.,4.8,0.,4.8,0.,4.8
1986-01-25 18:08:34.070 ,3,0,8.,4.8,0.,4.8,0.,4.8,0.,4.8
1986-01-25 18:08:38.870 ,3,0,6.,4.8,0.,4.8,0.,4.8,0.,4.8
1986-01-25 18:08:43.670 ,3,0,4.,4.8,0.,4.8,0.,4.8,0.,4.8
1986-01-25 18:08:48.470 ,4,0,11.,4.8,0.,4.8,0.,4.8,0.,4.8
1986-01-25 18:08:53.270 ,4,0,7.,4.8,0.,4.8,0.,4.8,0.,4.8
1986-01-25 18:08:58.070 ,4,0,13.,4.8,0.,4.8,0.,4.8,0.,4.8
1986-01-25 18:09:02.870 ,4,0,4.,4.8,0.,4.8,0.,4.8,0.,4.8
1986-01-25 18:09:07.670 ,4,0,7.,4.8,0.,4.8,0.,4.8,0.,4.8
1986-01-25 18:09:12.470 ,4,0,5.,4.8,0.,4.8,0.,4.8,0.,4.8
1986-01-25 18:09:17.270 ,4,0,7.,4.8,0.,4.8,0.,4.8,0.,4.8
1986-01-25 18:09:22.070 ,4,0,8.,4.8,0.,4.8,0.,4.8,0.,4.8
1986-01-25 18:09:26.870 ,4,0,1.,4.8,0.,4.8,0.,4.8,0.,4.8
1986-01-25 18:09:31.670 ,4,0,3.,4.8,0.,4.8,0.,4.8,0.,4.8
1986-01-25 18:09:36.470 ,5,0,8.,4.8,0.,4.8,0.,4.8,0.,4.8
1986-01-25 18:09:41.270 ,5,0,7.,4.8,0.,4.8,0.,4.8,0.,4.8
1986-01-25 18:09:46.070 ,5,0,10.,4.8,0.,4.8,0.,4.8,0.,4.8
1986-01-25 18:09:50.870 ,5,0,5.,4.8,0.,4.8,0.,4.8,0.,4.8
1986-01-25 18:09:55.670 ,5,0,4.,4.8,0.,4.8,0.,4.8,0.,4.8
1986-01-25 18:10:00.470 ,5,0,11.,4.8,0.,4.8,0.,4.8,0.,4.8
1986-01-25 18:10:05.270 ,5,0,5.,4.8,0.,4.8,0.,4.8,0.,4.8
1986-01-25 18:10:10.070 ,5,0,10.,4.8,0.,4.8,0.,4.8,0.,4.8
1986-01-25 18:10:14.870 ,5,0,4.,4.8,0.,4.8,0.,4.8,0.,4.8
1986-01-25 18:10:19.670 ,5,0,11.,4.8,0.,4.8,0.,4.8,0.,4.8
1986-01-25 18:10:24.470 ,6,0,8.,4.8,0.,4.8,0.,4.8,0.,4.8
1986-01-25 18:10:29.270 ,6,0,6.,4.8,0.,4.8,0.,4.8,0.,4.8
1986-01-25 18:10:34.070 ,6,0,8.,4.8,0.,4.8,0.,4.8,0.,4.8
1986-01-25 18:10:38.870 ,6,0,10.,4.8,0.,4.8,0.,4.8,0.,4.8
1986-01-25 18:10:43.670 ,6,0,5.,4.8,0.,4.8,0.,4.8,0.,4.8
1986-01-25 18:10:48.470 ,6,0,8.,4.8,0.,4.8,0.,4.8,0.,4.8
1986-01-25 18:10:53.270 ,6,0,9.,4.8,0.,4.8,0.,4.8,0.,4.8
1986-01-25 18:10:58.070 ,6,0,7.,4.8,0.,4.8,0.,4.8,0.,4.8
1986-01-25 18:11:02.870 ,6,0,4.,4.8,0.,4.8,0.,4.8,0.,4.8
1986-01-25 18:11:07.670 ,6,0,11.,4.8,0.,4.8,0.,4.8,0.,4.8
1986-01-25 18:11:12.470 ,7,0,5.,4.8,0.,4.8,0.,4.8,0.,4.8
1986-01-25 18:11:17.270 ,7,0,6.,4.8,0.,4.8,0.,4.8,0.,4.8
1986-01-25 18:11:22.070 ,7,0,8.,4.8,0.,4.8,0.,4.8,0.,4.8
1986-01-25 18:11:26.870 ,7,0,4.,4.8,0.,4.8,0.,4.8,0.,4.8
1986-01-25 18:11:31.670 ,7,0,2.,4.8,0.,4.8,0.,4.8,0.,4.8
1986-01-25 18:11:36.470 ,7,0,12.,4.8,0.,4.8,0.,4.8,0.,4.8
1986-01-25 18:11:41.270 ,7,0,8.,4.8,0.,4.8,0.,4.8,0.,4.8
1986-01-25 18:11:46.070 ,7,0,4.,4.8,0.,4.8,0.,4.8,0.,4.8
1986-01-25 18:11:50.870 ,7,0,3.,4.8,0.,4.8,0.,4.8,0.,4.8
1986-01-25 18:11:55.670 ,7,0,9.,4.8,0.,4.8,0.,4.8,0.,4.8
1986-01-25 18:12:00.470 ,7,0,12.,4.8,0.,4.8,0.,4.8,0.,4.8
1986-01-25 18:12:05.270 ,7,0,4.,4.8,0.,4.8,0.,4.8,0.,4.8
1986-01-25 18:12:10.070 ,7,0,9.,4.8,0.,4.8,0.,4.8,0.,4.8
1986-01-25 18:12:14.870 ,7,0,7.,4.8,0.,4.8,0.,4.8,0.,4.8
1986-01-25 18:12:19.670 ,7,0,6.,4.8,0.,4.8,0.,4.8,0.,4.8
1986-01-25 18:12:24.470 ,7,0,6.,4.8,0.,4.8,0.,4.8,0.,4.8
1986-01-25 18:12:29.270 ,7,0,5.,4.8,0.,4.8,0.,4.8,0.,4.8
1986-01-25 18:12:34.070 ,7,0,8.,4.8,0.,4.8,0.,4.8,0.,4.8
1986-01-25 18:12:38.870 ,7,0,8.,4.8,0.,4.8,0.,4.8,0.,4.8
1986-01-25 18:12:43.670 ,7,0,3.,4.8,0.,4.8,0.,4.8,0.,4.8
1986-01-25 18:12:48.470 ,6,0,6.,4.8,0.,4.8,0.,4.8,0.,4.8
1986-01-25 18:12:53.270 ,6,0,7.,4.8,0.,4.8,0.,4.8,0.,4.8
1986-01-25 18:12:58.070 ,6,0,6.,4.8,0.,4.8,0.,4.8,0.,4.8
1986-01-25 18:13:02.870 ,6,0,5.,4.8,0.,4.8,0.,4.8,0.,4.8
1986-01-25 18:13:07.670 ,6,0,9.,4.8,0.,4.8,0.,4.8,0.,4.8
1986-01-25 18:13:12.470 ,6,0,5.,4.8,0.,4.8,0.,4.8,0.,4.8
1986-01-25 18:13:17.270 ,6,0,6.,4.8,0.,4.8,0.,4.8,0.,4.8
1986-01-25 18:13:22.070 ,6,0,8.,4.8,0.,4.8,0.,4.8,0.,4.8
1986-01-25 18:13:26.870 ,6,0,3.,4.8,0.,4.8,0.,4.8,0.,4.8
1986-01-25 18:13:31.670 ,6,0,7.,4.8,0.,4.8,0.,4.8,0.,4.8
1986-01-25 18:13:36.470 ,5,0,8.,4.8,0.,4.8,0.,4.8,0.,4.8
1986-01-25 18:13:41.270 ,5,0,5.,4.8,0.,4.8,0.,4.8,0.,4.8
1986-01-25 18:13:46.070 ,5,0,8.,4.8,0.,4.8,0.,4.8,0.,4.8
1986-01-25 18:13:50.870 ,5,0,7.,4.8,0.,4.8,0.,4.8,0.,4.8
1986-01-25 18:13:55.670 ,5,0,3.,4.8,0.,4.8,0.,4.8,0.,4.8
1986-01-25 18:14:00.470 ,5,0,7.,4.8,0.,4.8,0.,4.8,0.,4.8
1986-01-25 18:14:05.270 ,5,0,8.,4.8,0.,4.8,0.,4.8,0.,4.8
1986-01-25 18:14:10.070 ,5,0,5.,4.8,0.,4.8,0.,4.8,0.,4.8
1986-01-25 18:14:14.870 ,5,0,11.,4.8,0.,4.8,0.,4.8,0.,4.8
1986-01-25 18:14:19.670 ,5,0,5.,4.8,0.,4.8,0.,4.8,0.,4.8
1986-01-25 18:14:24.470 ,4,0,14.,4.8,0.,4.8,0.,4.8,0.,4.8
1986-01-25 18:14:29.270 ,4,0,8.,4.8,0.,4.8,0.,4.8,0.,4.8
1986-01-25 18:14:34.070 ,4,0,8.,4.8,0.,4.8,0.,4.8,0.,4.8
1986-01-25 18:14:38.870 ,4,0,6.,4.8,0.,4.8,0.,4.8,0.,4.8
1986-01-25 18:14:43.670 ,4,0,8.,4.8,0.,4.8,0.,4.8,0.,4.8
1986-01-25 18:14:48.470 ,4,0,5.,4.8,0.,4.8,0.,4.8,0.,4.8
1986-01-25 18:14:53.270 ,4,0,9.,4.8,0.,4.8,0.,4.8,0.,4.8
1986-01-25 18:14:58.070 ,4,0,7.,4.8,0.,4.8,0.,4.8,0.,4.8
1986-01-25 18:15:02.870 ,4,0,4.,4.8,0.,4.8,0.,4.8,0.,4.8
1986-01-25 18:15:07.670 ,4,0,5.,4.8,0.,4.8,0.,4.8,0.,4.8
1986-01-25 18:15:12.470 ,3,0,12.,4.8,0.,4.8,0.,4.8,0.,4.8
1986-01-25 18:15:17.270 ,3,0,7.,4.8,0.,4.8,0.,4.8,0.,4.8
1986-01-25 18:15:22.070 ,3,0,5.,4.8,0.,4.8,0.,4.8,0.,4.8
1986-01-25 18:15:26.870 ,3,0,4.,4.8,0.,4.8,0.,4.8,0.,4.8
1986-01-25 18:15:31.670 ,3,0,9.,4.8,0.,4.8,0.,4.8,0.,4.8
1986-01-25 18:15:36.470 ,3,0,5.,4.8,0.,4.8,0.,4.8,0.,4.8
1986-01-25 18:15:41.270 ,3,0,8.,4.8,0.,4.8,0.,4.8,0.,4.8
1986-01-25 18:15:46.070 ,3,0,12.,4.8,0.,4.8,0.,4.8,0.,4.8
1986-01-25 18:15:50.870 ,3,0,6.,4.8,0.,4.8,0.,4.8,0.,4.8
1986-01-25 18:15:55.670 ,3,0,7.,4.8,0.,4.8,0.,4.8,0.,4.8
1986-01-25 18:16:00.470 ,2,0,14.,4.8,0.,4.8,0.,4.8,0.,4.8
1986-01-25 18:16:05.270 ,2,0,3.,4.8,0.,4.8,0.,4.8,0.,4.8
1986-01-25 18:16:10.070 ,2,0,7.,4.8,0.,4.8,0.,4.8,0.,4.8
1986-01-25 18:16:14.870 ,2,0,6.,4.8,0.,4.8,0.,4.8,0.,4.8
1986-01-25 18:16:19.670 ,2,0,11.,4.8,0.,4.8,0.,4.8,0.,4.8
1986-01-25 18:16:24.470 ,2,0,6.,4.8,0.,4.8,0.,4.8,0.,4.8
1986-01-25 18:16:29.270 ,2,0,5.,4.8,0.,4.8,0.,4.8,0.,4.8
1986-01-25 18:16:34.070 ,2,0,10.,4.8,0.,4.8,0.,4.8,0.,4.8
1986-01-25 18:16:38.870 ,2,0,4.,4.8,0.,4.8,0.,4.8,0.,4.8
1986-01-25 18:16:43.670 ,2,0,11.,4.8,0.,4.8,0.,4.8,0.,4.8
1986-01-25 18:16:48.470 ,1,0,10.,4.8,0.,4.8,0.,4.8,0.,4.8
1986-01-25 18:16:53.270 ,1,0,8.,4.8,0.,4.8,0.,4.8,0.,4.8
1986-01-25 18:16:58.070 ,1,0,9.,4.8,0.,4.8,0.,4.8,0.,4.8
1986-01-25 18:17:02.870 ,1,0,11.,4.8,0.,4.8,0.,4.8,0.,4.8
1986-01-25 18:17:07.670 ,1,0,17.,4.8,0.,4.8,0.,4.8,0.,4.8
1986-01-25 18:17:12.470 ,1,0,5.,4.8,0.,4.8,0.,4.8,0.,4.8
1986-01-25 18:17:17.270 ,1,0,9.,4.8,0.,4.8,0.,4.8,0.,4.8
1986-01-25 18:17:22.070 ,1,0,8.,4.8,0.,4.8,0.,4.8,0.,4.8
1986-01-25 18:17:26.870 ,1,0,12.,4.8,0.,4.8,0.,4.8,0.,4.8
1986-01-25 18:17:31.670 ,1,0,5.,4.8,0.,4.8,0.,4.8,0.,4.8
1986-01-25 18:17:36.470 ,0,0,7.,4.8,0.,4.8,0.,4.8,0.,4.8
1986-01-25 18:17:41.270 ,0,0,9.,4.8,0.,4.8,0.,4.8,0.,4.8
1986-01-25 18:17:46.070 ,0,0,5.,4.8,0.,4.8,0.,4.8,0.,4.8
1986-01-25 18:17:50.870 ,0,0,10.,4.8,0.,4.8,0.,4.8,0.,4.8
1986-01-25 18:17:55.670 ,0,0,5.,4.8,0.,4.8,0.,4.8,0.,4.8
1986-01-25 18:18:00.470 ,0,0,6.,4.8,0.,4.8,0.,4.8,0.,4.8
1986-01-25 18:18:05.270 ,0,0,7.,4.8,0.,4.8,0.,4.8,0.,4.8
1986-01-25 18:18:10.070 ,0,0,6.,4.8,0.,4.8,0.,4.8,0.,4.8
1986-01-25 18:18:14.870 ,0,0,5.,4.8,0.,4.8,0.,4.8,0.,4.8
1986-01-25 18:18:19.670 ,0,0,8.,4.8,0.,4.8,0.,4.8,0.,4.8
1986-01-25 18:18:24.460 ,0,0,9.,4.8,0.,4.8,0.,4.8,0.,4.8
1986-01-25 18:18:29.270 ,0,0,10.,4.8,0.,4.8,0.,4.8,0.,4.8
1986-01-25 18:18:34.060 ,0,0,8.,4.8,0.,4.8,0.,4.8,0.,4.8
1986-01-25 18:18:38.860 ,0,0,11.,4.8,0.,4.8,0.,4.8,0.,4.8
1986-01-25 18:18:43.670 ,0,0,5.,4.8,0.,4.8,0.,4.8,0.,4.8
1986-01-25 18:18:48.460 ,0,0,10.,4.8,0.,4.8,0.,4.8,0.,4.8
1986-01-25 18:18:53.270 ,0,0,8.,4.8,0.,4.8,0.,4.8,0.,4.8
1986-01-25 18:18:58.060 ,0,0,9.,4.8,0.,4.8,0.,4.8,0.,4.8
1986-01-25 18:19:02.860 ,0,0,8.,4.8,0.,4.8,0.,4.8,0.,4.8
1986-01-25 18:19:07.670 ,0,0,6.,4.8,0.,4.8,0.,4.8,0.,4.8
1986-01-25 18:19:12.460 ,1,0,4.,4.8,0.,4.8,0.,4.8,0.,4.8
1986-01-25 18:19:17.270 ,1,0,4.,4.8,0.,4.8,0.,4.8,0.,4.8
1986-01-25 18:19:22.060 ,1,0,5.,4.8,0.,4.8,0.,4.8,0.,4.8
1986-01-25 18:19:26.860 ,1,0,11.,4.8,0.,4.8,0.,4.8,0.,4.8
1986-01-25 18:19:31.670 ,1,0,6.,4.8,0.,4.8,0.,4.8,0.,4.8
1986-01-25 18:19:36.460 ,1,0,3.,4.8,0.,4.8,0.,4.8,0.,4.8
1986-01-25 18:19:41.270 ,1,0,7.,4.8,0.,4.8,0.,4.8,0.,4.8
1986-01-25 18:19:46.060 ,1,0,6.,4.8,0.,4.8,0.,4.8,0.,4.8
1986-01-25 18:19:50.860 ,1,0,12.,4.8,0.,4.8,0.,4.8,0.,4.8
1986-01-25 18:19:55.670 ,1,0,12.,4.8,0.,4.8,0.,4.8,0.,4.8
1986-01-25 18:20:00.460 ,2,0,8.,4.8,0.,4.8,0.,4.8,0.,4.8
1986-01-25 18:20:05.270 ,2,0,8.,4.8,0.,4.8,0.,4.8,0.,4.8
1986-01-25 18:20:10.060 ,2,0,11.,4.8,0.,4.8,0.,4.8,0.,4.8
1986-01-25 18:20:14.860 ,2,0,4.,4.8,0.,4.8,0.,4.8,0.,4.8
1986-01-25 18:20:19.670 ,2,0,7.,4.8,0.,4.8,0.,4.8,0.,4.8
1986-01-25 18:20:24.460 ,2,0,8.,4.8,0.,4.8,0.,4.8,0.,4.8
1986-01-25 18:20:29.270 ,2,0,6.,4.8,0.,4.8,0.,4.8,0.,4.8
1986-01-25 18:20:34.060 ,2,0,10.,4.8,0.,4.8,0.,4.8,0.,4.8
1986-01-25 18:20:38.860 ,2,0,9.,4.8,0.,4.8,0.,4.8,0.,4.8
1986-01-25 18:20:43.670 ,2,0,10.,4.8,0.,4.8,0.,4.8,0.,4.8
1986-01-25 18:20:48.460 ,3,0,6.,4.8,0.,4.8,0.,4.8,0.,4.8
1986-01-25 18:20:53.270 ,3,0,8.,4.8,0.,4.8,0.,4.8,0.,4.8
1986-01-25 18:20:58.060 ,3,0,9.,4.8,0.,4.8,0.,4.8,0.,4.8
1986-01-25 18:21:02.860 ,3,0,11.,4.8,0.,4.8,0.,4.8,0.,4.8
1986-01-25 18:21:07.670 ,3,0,9.,4.8,0.,4.8,0.,4.8,0.,4.8
1986-01-25 18:21:12.460 ,3,0,2.,4.8,0.,4.8,0.,4.8,0.,4.8
1986-01-25 18:21:17.270 ,3,0,3.,4.8,0.,4.8,0.,4.8,0.,4.8
1986-01-25 18:21:22.060 ,3,0,5.,4.8,0.,4.8,0.,4.8,0.,4.8
1986-01-25 18:21:26.860 ,3,0,6.,4.8,0.,4.8,0.,4.8,0.,4.8
1986-01-25 18:21:31.670 ,3,0,8.,4.8,0.,4.8,0.,4.8,0.,4.8
1986-01-25 18:21:36.460 ,4,0,7.,4.8,0.,4.8,0.,4.8,0.,4.8
1986-01-25 18:21:41.270 ,4,0,7.,4.8,0.,4.8,0.,4.8,0.,4.8
1986-01-25 18:21:46.060 ,4,0,5.,4.8,0.,4.8,0.,4.8,0.,4.8
1986-01-25 18:21:50.860 ,4,0,9.,4.8,0.,4.8,0.,4.8,0.,4.8
1986-01-25 18:21:55.670 ,4,0,10.,4.8,0.,4.8,0.,4.8,0.,4.8
1986-01-25 18:22:00.460 ,4,0,6.,4.8,0.,4.8,0.,4.8,0.,4.8
1986-01-25 18:22:05.270 ,4,0,8.,4.8,0.,4.8,0.,4.8,0.,4.8
1986-01-25 18:22:10.060 ,4,0,8.,4.8,0.,4.8,0.,4.8,0.,4.8
1986-01-25 18:22:14.860 ,4,0,5.,4.8,0.,4.8,0.,4.8,0.,4.8
1986-01-25 18:22:19.670 ,4,0,5.,4.8,0.,4.8,0.,4.8,0.,4.8
1986-01-25 18:22:24.460 ,5,0,6.,4.8,0.,4.8,0.,4.8,0.,4.8
1986-01-25 18:22:29.270 ,5,0,7.,4.8,0.,4.8,0.,4.8,0.,4.8
1986-01-25 18:22:34.060 ,5,0,10.,4.8,0.,4.8,0.,4.8,0.,4.8
1986-01-25 18:22:38.860 ,5,0,8.,4.8,0.,4.8,0.,4.8,0.,4.8
1986-01-25 18:22:43.670 ,5,0,5.,4.8,0.,4.8,0.,4.8,0.,4.8
1986-01-25 18:22:48.460 ,5,0,9.,4.8,0.,4.8,0.,4.8,0.,4.8
1986-01-25 18:22:53.270 ,5,0,11.,4.8,0.,4.8,0.,4.8,0.,4.8
1986-01-25 18:22:58.060 ,5,0,7.,4.8,0.,4.8,0.,4.8,0.,4.8
1986-01-25 18:23:02.860 ,5,0,4.,4.8,0.,4.8,0.,4.8,0.,4.8
1986-01-25 18:23:07.670 ,5,0,4.,4.8,0.,4.8,0.,4.8,0.,4.8
1986-01-25 18:23:12.460 ,6,0,3.,4.8,0.,4.8,0.,4.8,0.,4.8
1986-01-25 18:23:17.270 ,6,0,8.,4.8,0.,4.8,0.,4.8,0.,4.8
1986-01-25 18:23:22.060 ,6,0,6.,4.8,0.,4.8,0.,4.8,0.,4.8
1986-01-25 18:23:26.860 ,6,0,7.,4.8,0.,4.8,0.,4.8,0.,4.8
1986-01-25 18:23:31.670 ,6,0,10.,4.8,0.,4.8,0.,4.8,0.,4.8
1986-01-25 18:23:36.460 ,6,0,7.,4.8,0.,4.8,0.,4.8,0.,4.8
1986-01-25 18:23:41.270 ,6,0,6.,4.8,0.,4.8,0.,4.8,0.,4.8
1986-01-25 18:23:46.060 ,6,0,4.,4.8,0.,4.8,0.,4.8,0.,4.8
1986-01-25 18:23:50.860 ,6,0,2.,4.8,0.,4.8,0.,4.8,0.,4.8
1986-01-25 18:23:55.670 ,6,0,5.,4.8,0.,4.8,0.,4.8,0.,4.8
1986-01-25 18:24:00.460 ,7,0,6.,4.8,0.,4.8,0.,4.8,0.,4.8
1986-01-25 18:24:05.270 ,7,0,8.,4.8,0.,4.8,0.,4.8,0.,4.8
1986-01-25 18:24:10.060 ,7,0,13.,4.8,0.,4.8,0.,4.8,0.,4.8
1986-01-25 18:24:14.860 ,7,0,3.,4.8,0.,4.8,0.,4.8,0.,4.8
1986-01-25 18:24:19.670 ,7,0,10.,4.8,0.,4.8,0.,4.8,0.,4.8
1986-01-25 18:24:24.460 ,7,0,5.,4.8,0.,4.8,0.,4.8,0.,4.8
1986-01-25 18:24:29.270 ,7,0,7.,4.8,0.,4.8,0.,4.8,0.,4.8
1986-01-25 18:24:34.060 ,7,0,5.,4.8,0.,4.8,0.,4.8,0.,4.8
1986-01-25 18:24:38.860 ,7,0,8.,4.8,0.,4.8,0.,4.8,0.,4.8
1986-01-25 18:24:43.670 ,7,0,7.,4.8,0.,4.8,0.,4.8,0.,4.8
1986-01-25 18:24:48.460 ,7,0,8.,4.8,0.,4.8,0.,4.8,0.,4.8
1986-01-25 18:24:53.270 ,7,0,6.,4.8,0.,4.8,0.,4.8,0.,4.8
1986-01-25 18:24:58.060 ,7,0,6.,4.8,0.,4.8,0.,4.8,0.,4.8
1986-01-25 18:25:02.860 ,7,0,7.,4.8,0.,4.8,0.,4.8,0.,4.8
1986-01-25 18:25:07.670 ,7,0,2.,4.8,0.,4.8,0.,4.8,0.,4.8
1986-01-25 18:25:12.460 ,7,0,5.,4.8,0.,4.8,0.,4.8,0.,4.8
1986-01-25 18:25:17.270 ,7,0,6.,4.8,0.,4.8,0.,4.8,0.,4.8
1986-01-25 18:25:22.060 ,7,0,6.,4.8,0.,4.8,0.,4.8,0.,4.8
1986-01-25 18:25:26.860 ,7,0,5.,4.8,0.,4.8,0.,4.8,0.,4.8
1986-01-25 18:25:31.670 ,7,0,7.,4.8,0.,4.8,0.,4.8,0.,4.8
1986-01-25 18:25:36.460 ,6,0,6.,4.8,0.,4.8,0.,4.8,0.,4.8
1986-01-25 18:25:41.270 ,6,0,9.,4.8,0.,4.8,0.,4.8,0.,4.8
1986-01-25 18:25:46.060 ,6,0,8.,4.8,0.,4.8,0.,4.8,0.,4.8
1986-01-25 18:25:50.860 ,6,0,5.,4.8,0.,4.8,0.,4.8,0.,4.8
1986-01-25 18:25:55.670 ,6,0,9.,4.8,0.,4.8,0.,4.8,0.,4.8
1986-01-25 18:26:00.460 ,6,0,6.,4.8,0.,4.8,0.,4.8,0.,4.8
1986-01-25 18:26:05.270 ,6,0,5.,4.8,0.,4.8,0.,4.8,0.,4.8
1986-01-25 18:26:10.060 ,6,0,8.,4.8,0.,4.8,0.,4.8,0.,4.8
1986-01-25 18:26:14.860 ,6,0,8.,4.8,0.,4.8,0.,4.8,0.,4.8
1986-01-25 18:26:19.670 ,6,0,7.,4.8,0.,4.8,0.,4.8,0.,4.8
1986-01-25 18:26:24.460 ,5,0,14.,4.8,0.,4.8,0.,4.8,0.,4.8
1986-01-25 18:26:29.270 ,5,0,6.,4.8,0.,4.8,0.,4.8,0.,4.8
1986-01-25 18:26:34.060 ,5,0,7.,4.8,0.,4.8,0.,4.8,0.,4.8
1986-01-25 18:26:38.860 ,5,0,10.,4.8,0.,4.8,0.,4.8,0.,4.8
1986-01-25 18:26:43.670 ,5,0,4.,4.8,0.,4.8,0.,4.8,0.,4.8
1986-01-25 18:26:48.460 ,5,0,9.,4.8,0.,4.8,0.,4.8,0.,4.8
1986-01-25 18:26:53.270 ,5,0,4.,4.8,0.,4.8,0.,4.8,0.,4.8
1986-01-25 18:26:58.060 ,5,0,7.,4.8,0.,4.8,0.,4.8,0.,4.8
1986-01-25 18:27:02.860 ,5,0,6.,4.8,0.,4.8,0.,4.8,0.,4.8
1986-01-25 18:27:07.670 ,5,0,11.,4.8,0.,4.8,0.,4.8,0.,4.8
1986-01-25 18:27:12.460 ,4,0,8.,4.8,0.,4.8,0.,4.8,0.,4.8
1986-01-25 18:27:17.270 ,4,0,3.,4.8,0.,4.8,0.,4.8,0.,4.8
1986-01-25 18:27:22.060 ,4,0,7.,4.8,0.,4.8,0.,4.8,0.,4.8
1986-01-25 18:27:26.860 ,4,0,6.,4.8,0.,4.8,0.,4.8,0.,4.8
1986-01-25 18:27:31.670 ,4,0,1.,4.8,0.,4.8,0.,4.8,0.,4.8
1986-01-25 18:27:36.460 ,4,0,10.,4.8,0.,4.8,0.,4.8,0.,4.8
1986-01-25 18:27:41.270 ,4,0,5.,4.8,0.,4.8,0.,4.8,0.,4.8
1986-01-25 18:27:46.060 ,4,0,4.,4.8,0.,4.8,0.,4.8,0.,4.8
1986-01-25 18:27:50.860 ,4,0,10.,4.8,0.,4.8,0.,4.8,0.,4.8
1986-01-25 18:27:55.670 ,4,0,8.,4.8,0.,4.8,0.,4.8,0.,4.8
1986-01-25 18:28:00.460 ,3,0,8.,4.8,0.,4.8,0.,4.8,0.,4.8
1986-01-25 18:28:05.270 ,3,0,9.,4.8,0.,4.8,0.,4.8,0.,4.8
1986-01-25 18:28:10.060 ,3,0,8.,4.8,0.,4.8,0.,4.8,0.,4.8
1986-01-25 18:28:14.860 ,3,0,7.,4.8,0.,4.8,0.,4.8,0.,4.8
1986-01-25 18:28:19.670 ,3,0,13.,4.8,0.,4.8,0.,4.8,0.,4.8
1986-01-25 18:28:24.460 ,3,0,7.,4.8,0.,4.8,0.,4.8,0.,4.8
1986-01-25 18:28:29.270 ,3,0,8.,4.8,0.,4.8,0.,4.8,0.,4.8
1986-01-25 18:28:34.060 ,3,0,4.,4.8,0.,4.8,0.,4.8,0.,4.8
1986-01-25 18:28:38.860 ,3,0,5.,4.8,0.,4.8,0.,4.8,0.,4.8
1986-01-25 18:28:43.670 ,3,0,6.,4.8,0.,4.8,0.,4.8,0.,4.8
1986-01-25 18:28:48.460 ,2,0,10.,4.8,0.,4.8,0.,4.8,0.,4.8
1986-01-25 18:28:53.270 ,2,0,8.,4.8,0.,4.8,0.,4.8,0.,4.8
1986-01-25 18:28:58.060 ,2,0,4.,4.8,0.,4.8,0.,4.8,0.,4.8
1986-01-25 18:29:02.860 ,2,0,8.,4.8,0.,4.8,0.,4.8,0.,4.8
1986-01-25 18:29:07.670 ,2,0,6.,4.8,0.,4.8,0.,4.8,0.,4.8
1986-01-25 18:29:12.460 ,2,0,14.,4.8,0.,4.8,0.,4.8,0.,4.8
1986-01-25 18:29:17.270 ,2,0,8.,4.8,0.,4.8,0.,4.8,0.,4.8
1986-01-25 18:29:22.060 ,2,0,8.,4.8,0.,4.8,0.,4.8,0.,4.8
1986-01-25 18:29:26.860 ,2,0,6.,4.8,0.,4.8,0.,4.8,0.,4.8
1986-01-25 18:29:31.670 ,2,0,5.,4.8,0.,4.8,0.,4.8,0.,4.8
1986-01-25 18:29:36.460 ,1,0,4.,4.8,0.,4.8,0.,4.8,0.,4.8
1986-01-25 18:29:41.270 ,1,0,2.,4.8,0.,4.8,0.,4.8,0.,4.8
1986-01-25 18:29:46.060 ,1,0,8.,4.8,0.,4.8,0.,4.8,0.,4.8
1986-01-25 18:29:50.860 ,1,0,4.,4.8,0.,4.8,0.,4.8,0.,4.8
1986-01-25 18:29:55.670 ,1,0,6.,4.8,0.,4.8,0.,4.8,0.,4.8
1986-01-25 18:30:00.460 ,1,0,7.,4.8,0.,4.8,0.,4.8,0.,4.8
1986-01-25 18:30:05.270 ,1,0,11.,4.8,0.,4.8,0.,4.8,0.,4.8
1986-01-25 18:30:10.060 ,1,0,5.,4.8,0.,4.8,0.,4.8,0.,4.8
1986-01-25 18:30:14.860 ,1,0,9.,4.8,0.,4.8,0.,4.8,0.,4.8
1986-01-25 18:30:19.670 ,1,0,8.,4.8,0.,4.8,0.,4.8,0.,4.8
1986-01-25 18:30:24.460 ,0,0,7.,4.8,0.,4.8,0.,4.8,0.,4.8
1986-01-25 18:30:29.270 ,0,0,6.,4.8,0.,4.8,0.,4.8,0.,4.8
1986-01-25 18:30:34.060 ,0,0,3.,4.8,0.,4.8,0.,4.8,0.,4.8
1986-01-25 18:30:38.860 ,0,0,9.,4.8,0.,4.8,0.,4.8,0.,4.8
1986-01-25 18:30:43.670 ,0,0,7.,4.8,0.,4.8,0.,4.8,0.,4.8
1986-01-25 18:30:48.460 ,0,0,4.,4.8,0.,4.8,0.,4.8,0.,4.8
1986-01-25 18:30:53.270 ,0,0,7.,4.8,0.,4.8,0.,4.8,0.,4.8
1986-01-25 18:30:58.060 ,0,0,7.,4.8,0.,4.8,0.,4.8,0.,4.8
1986-01-25 18:31:02.860 ,0,0,7.,4.8,0.,4.8,0.,4.8,0.,4.8
1986-01-25 18:31:07.670 ,0,0,3.,4.8,0.,4.8,0.,4.8,0.,4.8
1986-01-25 18:31:12.460 ,0,0,11.,4.8,0.,4.8,0.,4.8,0.,4.8
1986-01-25 18:31:17.270 ,0,0,5.,4.8,0.,4.8,0.,4.8,0.,4.8
1986-01-25 18:31:22.060 ,0,0,8.,4.8,0.,4.8,0.,4.8,0.,4.8
1986-01-25 18:31:26.860 ,0,0,9.,4.8,0.,4.8,0.,4.8,0.,4.8
1986-01-25 18:31:31.670 ,0,0,11.,4.8,0.,4.8,0.,4.8,0.,4.8
1986-01-25 18:31:36.460 ,0,0,3.,4.8,0.,4.8,0.,4.8,0.,4.8
1986-01-25 18:31:41.270 ,0,0,5.,4.8,0.,4.8,0.,4.8,0.,4.8
1986-01-25 18:31:46.060 ,0,0,9.,4.8,0.,4.8,0.,4.8,0.,4.8
1986-01-25 18:31:50.860 ,0,0,8.,4.8,0.,4.8,0.,4.8,0.,4.8
1986-01-25 18:31:55.670 ,0,0,6.,4.8,0.,4.8,0.,4.8,0.,4.8
1986-01-25 18:32:00.460 ,1,0,3.,4.8,0.,4.8,0.,4.8,0.,4.8
1986-01-25 18:32:05.270 ,1,0,8.,4.8,0.,4.8,0.,4.8,0.,4.8
1986-01-25 18:32:10.060 ,1,0,6.,4.8,0.,4.8,0.,4.8,0.,4.8
1986-01-25 18:32:14.860 ,1,0,7.,4.8,0.,4.8,0.,4.8,0.,4.8
1986-01-25 18:32:19.670 ,1,0,6.,4.8,0.,4.8,0.,4.8,0.,4.8
1986-01-25 18:32:24.460 ,1,0,10.,4.8,0.,4.8,0.,4.8,0.,4.8
1986-01-25 18:32:29.270 ,1,0,12.,4.8,0.,4.8,0.,4.8,0.,4.8
1986-01-25 18:32:34.060 ,1,0,8.,4.8,0.,4.8,0.,4.8,0.,4.8
1986-01-25 18:32:38.860 ,1,0,7.,4.8,0.,4.8,0.,4.8,0.,4.8
1986-01-25 18:32:43.670 ,1,0,7.,4.8,0.,4.8,0.,4.8,0.,4.8
1986-01-25 18:32:48.460 ,2,0,11.,4.8,0.,4.8,0.,4.8,0.,4.8
1986-01-25 18:32:53.270 ,2,0,7.,4.8,0.,4.8,0.,4.8,0.,4.8
1986-01-25 18:32:58.060 ,2,0,6.,4.8,0.,4.8,0.,4.8,0.,4.8
1986-01-25 18:33:02.860 ,2,0,6.,4.8,0.,4.8,0.,4.8,0.,4.8
1986-01-25 18:33:07.670 ,2,0,5.,4.8,0.,4.8,0.,4.8,0.,4.8
1986-01-25 18:33:12.460 ,2,0,5.,4.8,0.,4.8,0.,4.8,0.,4.8